Date String (YYYY-MM-DD hh:mm:ss) UTC,Instrument flags,absolute air pressure of the measurement (hPa),sample flow rate (lpm),inlet stack bypass flow (lpm),air temperature of the measurement (°C),ambient temperature measured by the external sensor (°C),aerosol sample conditioner tube jacket temperature (°C),OPC LED temperature (°C),internal box temperature (°C),relative humidity of the measurement (%),span deviation,mass concentration of particles derived from Lorenz-Mie calculation of OPC scattering (μg/m³),mass concentration of particles derived from Lorenz-Mie calculation of OPC scattering (μg/m³),mass concentration of particles derived from Lorenz-Mie calculation of OPC scattering (μg/m³)
DateTimeUTC,F1_M11,P_M11,Q1_M11,Q2_M11,T1_M11,T2_M11,T3_M11,T4_M11,T5_M11,U1_M11,ZSPAN_M11,X2_M11,X0_M11,X1_M11
2024-02-11 00:00:00,SystemResetWarning,0826.6,5.01,000.00,018.7,018.6,000.0,027.0,020.4,19.6,0000.0,0004.37,0006.74,0004.28
2024-02-11 00:01:00,SystemResetWarning,0826.6,5.00,000.00,018.7,018.4,000.0,027.0,020.3,19.6,0000.0,0004.38,0006.72,0004.30
2024-02-11 00:02:00,SystemResetWarning,0826.6,4.99,000.00,018.6,018.3,000.0,027.0,020.2,19.6,0000.0,0004.41,0006.80,0004.31
2024-02-11 00:03:00,SystemResetWarning,0826.6,4.99,000.00,018.6,018.2,000.0,027.0,020.2,19.6,0000.0,0004.41,0006.83,0004.31
2024-02-11 00:04:00,SystemResetWarning,0826.6,4.99,000.00,018.6,018.2,000.0,027.0,020.2,19.7,0000.0,0004.39,0006.76,0004.30
2024-02-11 00:05:00,SystemResetWarning,0826.6,4.99,000.00,018.5,018.1,000.0,027.0,020.1,19.7,0000.0,0004.38,0006.74,0004.30
2024-02-11 00:06:00,SystemResetWarning,0826.6,5.01,000.00,018.5,018.0,000.0,026.9,020.1,19.7,0000.0,0004.37,0005.16,0004.29
2024-02-11 00:07:00,SystemResetWarning,0826.6,5.01,000.00,018.5,018.0,000.0,026.9,020.0,19.7,0000.0,0004.35,0005.09,0004.27
2024-02-11 00:08:00,SystemResetWarning,0826.6,4.99,000.00,018.4,017.9,000.0,026.9,020.0,19.8,0000.0,0004.34,0005.03,0004.25
2024-02-11 00:09:00,SystemResetWarning,0826.6,5.00,000.00,018.4,017.9,000.0,026.9,020.0,19.8,0000.0,0004.30,0004.93,0004.23
2024-02-11 00:10:00,SystemResetWarning,0826.6,5.02,000.00,018.4,017.9,000.0,026.9,020.0,19.8,0000.0,0004.29,0004.94,0004.22
2024-02-11 00:11:00,SystemResetWarning,0826.7,5.00,000.00,018.4,017.8,000.0,027.0,020.0,19.8,0000.0,0004.28,0006.11,0004.20
2024-02-11 00:12:00,SystemResetWarning,0826.7,4.99,000.00,018.3,017.8,000.0,027.0,020.0,19.7,0000.0,0004.26,0006.08,0004.18
2024-02-11 00:13:00,SystemResetWarning,0826.7,5.00,000.00,018.3,017.8,000.0,027.0,020.0,19.7,0000.0,0004.22,0005.97,0004.15
2024-02-11 00:14:00,SystemResetWarning,0826.7,5.02,000.00,018.4,018.0,000.0,027.0,020.2,19.6,0000.0,0004.18,0005.87,0004.13
2024-02-11 00:15:00,SystemResetWarning,0826.8,5.00,000.00,018.5,018.7,000.0,027.1,020.7,19.4,0000.0,0004.16,0005.84,0004.11
2024-02-11 00:16:00,SystemResetWarning,0826.8,4.98,000.00,018.7,019.1,000.0,027.2,020.9,19.1,0000.0,0004.13,0005.80,0004.08
2024-02-11 00:17:00,SystemResetWarning,0826.8,5.02,000.00,018.8,018.9,000.0,027.1,020.7,19.1,0000.0,0004.10,0005.74,0004.06
2024-02-11 00:18:00,SystemResetWarning,0826.7,5.00,000.00,018.7,018.8,000.0,027.1,020.5,19.0,0000.0,0004.08,0005.71,0004.04
2024-02-11 00:19:00,SystemResetWarning,0826.8,5.00,000.00,018.7,018.6,000.0,027.0,020.4,19.1,0000.0,0004.07,0005.75,0004.02
2024-02-11 00:20:00,SystemResetWarning,0826.8,5.00,000.00,018.7,018.5,000.0,027.0,020.3,19.1,0000.0,0004.06,0005.79,0004.02
2024-02-11 00:21:00,SystemResetWarning,0826.8,5.00,000.00,018.6,018.4,000.0,027.0,020.3,19.1,0000.0,0004.05,0005.80,0004.01
2024-02-11 00:22:00,SystemResetWarning,0826.8,5.00,000.00,018.6,018.3,000.0,027.0,020.2,19.1,0000.0,0004.04,0004.73,0004.00
2024-02-11 00:23:00,SystemResetWarning,0826.8,5.00,000.00,018.6,018.2,000.0,027.0,020.1,19.2,0000.0,0004.03,0004.55,0003.99
2024-02-11 00:24:00,SystemResetWarning,0826.8,5.02,000.00,018.5,018.1,000.0,027.0,020.0,19.2,0000.0,0004.04,0004.57,0004.00
2024-02-11 00:25:00,SystemResetWarning,0826.9,5.00,000.00,018.5,018.0,000.0,027.0,020.0,19.2,0000.0,0004.06,0004.66,0004.01
2024-02-11 00:26:00,SystemResetWarning,0826.9,5.00,000.00,018.4,017.9,000.0,027.0,020.0,19.2,0000.0,0004.10,0005.26,0004.03
2024-02-11 00:27:00,SystemResetWarning,0826.9,5.00,000.00,018.4,017.9,000.0,027.0,020.0,19.3,0000.0,0004.11,0006.37,0004.04
2024-02-11 00:28:00,SystemResetWarning,0827.0,5.00,000.00,018.4,017.8,000.0,027.0,020.0,19.3,0000.0,0004.13,0006.38,0004.06
2024-02-11 00:29:00,SystemResetWarning,0827.0,4.99,000.00,018.4,017.8,000.0,027.0,020.0,19.3,0000.0,0004.14,0006.41,0004.07
2024-02-11 00:30:00,SystemResetWarning,0827.0,5.00,000.00,018.4,017.8,000.0,027.0,020.1,19.3,0000.0,0004.15,0006.42,0004.08
2024-02-11 00:31:00,SystemResetWarning,0826.9,5.00,000.00,018.5,018.3,000.0,027.1,020.4,19.2,0000.0,0004.16,0006.37,0004.08
2024-02-11 00:32:00,SystemResetWarning,0827.0,5.01,000.00,018.7,019.1,000.0,027.2,020.9,19.0,0000.0,0004.15,0006.31,0004.07
2024-02-11 00:33:00,SystemResetWarning,0827.0,4.99,000.00,018.8,019.1,000.0,027.1,020.9,18.9,0000.0,0004.14,0006.30,0004.07
2024-02-11 00:34:00,SystemResetWarning,0827.0,4.99,000.00,018.8,019.0,000.0,027.1,020.7,18.9,0000.0,0004.13,0006.32,0004.05
2024-02-11 00:35:00,SystemResetWarning,0827.0,5.01,000.00,018.8,018.8,000.0,027.1,020.6,18.9,0000.0,0004.11,0006.28,0004.03
2024-02-11 00:36:00,SystemResetWarning,0826.9,5.00,000.00,018.8,018.7,000.0,027.1,020.4,19.0,0000.0,0004.07,0006.16,0004.00
2024-02-11 00:37:00,SystemResetWarning,0827.0,5.00,000.00,018.7,018.5,000.0,027.0,020.2,19.0,0000.0,0004.05,0005.84,0003.98
2024-02-11 00:38:00,SystemResetWarning,0827.0,5.00,000.00,018.7,018.4,000.0,027.0,020.2,19.1,0000.0,0004.02,0004.61,0003.97
2024-02-11 00:39:00,SystemResetWarning,0827.0,5.01,000.00,018.6,018.3,000.0,027.0,020.1,19.1,0000.0,0004.02,0004.51,0003.96
2024-02-11 00:40:00,SystemResetWarning,0827.1,5.00,000.00,018.6,018.2,000.0,027.0,020.1,19.2,0000.0,0004.02,0004.53,0003.95
2024-02-11 00:41:00,SystemResetWarning,0827.1,4.99,000.00,018.5,018.1,000.0,027.0,020.1,19.2,0000.0,0004.02,0004.49,0003.95
2024-02-11 00:42:00,SystemResetWarning,0827.1,5.00,000.00,018.5,018.1,000.0,027.0,020.0,19.3,0000.0,0004.01,0004.45,0003.95
2024-02-11 00:43:00,SystemResetWarning,0827.1,5.01,000.00,018.5,018.0,000.0,027.0,020.0,19.3,0000.0,0004.02,0004.52,0003.96
2024-02-11 00:44:00,SystemResetWarning,0827.1,5.00,000.00,018.5,017.9,000.0,027.0,020.0,19.4,0000.0,0004.02,0005.72,0003.96
2024-02-11 00:45:00,SystemResetWarning,0827.2,5.01,000.00,018.4,017.9,000.0,027.0,020.0,19.4,0000.0,0004.02,0005.74,0003.97
2024-02-11 00:46:00,SystemResetWarning,0827.2,5.01,000.00,018.4,017.8,000.0,027.0,020.0,19.4,0000.0,0004.04,0005.77,0003.99
2024-02-11 00:47:00,SystemResetWarning,0827.1,5.00,000.00,018.4,017.8,000.0,027.0,020.0,19.4,0000.0,0004.07,0005.85,0004.01
2024-02-11 00:48:00,SystemResetWarning,0827.2,5.00,000.00,018.4,017.8,000.0,027.0,020.0,19.4,0000.0,0004.08,0005.85,0004.02
2024-02-11 00:49:00,SystemResetWarning,0827.2,4.99,000.00,018.4,017.8,000.0,027.0,020.0,19.4,0000.0,0004.08,0005.84,0004.02
2024-02-11 00:50:00,SystemResetWarning,0827.2,5.01,000.00,018.4,017.8,000.0,027.0,020.0,19.5,0000.0,0004.06,0005.79,0004.02
2024-02-11 00:51:00,SystemResetWarning,0827.1,5.00,000.00,018.3,017.7,000.0,027.0,020.0,19.5,0000.0,0004.05,0005.75,0004.01
2024-02-11 00:52:00,SystemResetWarning,0827.2,5.01,000.00,018.3,017.7,000.0,027.0,020.0,19.5,0000.0,0004.03,0006.41,0003.99
2024-02-11 00:53:00,SystemResetWarning,0827.2,5.01,000.00,018.3,017.7,000.0,027.0,020.0,19.5,0000.0,0004.00,0006.64,0003.96
2024-02-11 00:54:00,SystemResetWarning,0827.2,4.99,000.00,018.3,017.7,000.0,027.0,020.0,19.4,0000.0,0003.99,0006.59,0003.94
2024-02-11 00:55:00,SystemResetWarning,0827.2,4.99,000.00,018.3,017.7,000.0,027.0,020.0,19.4,0000.0,0003.97,0005.51,0003.93
2024-02-11 00:56:00,SystemResetWarning,0827.3,5.00,000.00,018.4,018.1,000.0,027.1,020.3,19.3,0000.0,0003.95,0005.27,0003.90
2024-02-11 00:57:00,SystemResetWarning,0827.4,5.02,000.00,018.6,018.9,000.0,027.2,020.8,19.1,0000.0,0003.92,0005.24,0003.88
2024-02-11 00:58:00,SystemResetWarning,0827.4,4.99,000.00,018.7,019.0,000.0,027.1,020.8,18.9,0000.0,0003.90,0005.18,0003.86
2024-02-11 00:59:00,SystemResetWarning,0827.4,4.99,000.00,018.7,018.8,000.0,027.1,020.6,18.9,0000.0,0003.89,0005.17,0003.84
